[[{"header":{"parameterUnit":"m.s-1","parameterCategory":1,"la1":30.2991,"la2":30.254,"lo1":-89.0895,"lo2":-89.0444,"dy":0.0017,"dx":0.0017,"nx":28,"ny":28,"refTime":"2023-08-13T21:00:00:Z","depth":0,"parameterNumber":2,"parameterNumberName":"U-component_of_WINDS"},"data":[0,0,0,0,0,0,0,0,0,0,0,0,0,0,0,0,0,0,0,0,0,0,0,0,0,0,0,0,0,0,0,0,0,0,0,0,0,0,0,0,0,0,0,0,0,0,0,0,0,0,0,0,0,0,0,0,0,0,1.8865,1.8866,0,1.8953,1.8954,1.8955,1.8967,1.8966,1.8965,1.8964,1.9059,1.9062,1.9066,0,0,0,0,0,0,0,0,0,0,0,0,0,1.871,1.8713,1.8865,1.8866,1.8867,1.8953,1.8954,1.8955,1.8967,1.8966,1.8965,1.8964,1.9058,1.9062,1.9066,0,0,0,0,0,0,0,0,0,0,0,0,0,1.8786,1.8714,1.8864,1.8883,1.8885,1.8953,1.8954,1.8956,1.8967,1.8966,1.8964,1.8963,1.9057,1.9062,1.9067,1.9123,0,0,1.9082,1.9084,0,0,0,0,0,0,0,0,1.8781,1.8791,1.8879,1.8882,1.8885,1.8947,1.8935,1.9012,1.8967,1.8936,1.8964,1.8963,1.9023,1.9031,1.9051,1.9128,1.9132,1.9082,1.9085,1.9087,1.9089,0,0,0,0,0,0,0,1.8776,1.8788,1.89,1.888,1.8884,1.8888,1.8897,1.8949,1.8986,1.8939,1.894,1.895,1.9025,1.9046,1.9053,1.9133,1.9082,1.9087,1.909,1.9092,1.9262,1.9263,0,0,0,0,0,0,1.8767,1.8783,1.8897,1.8902,1.8829,1.8892,1.8902,1.8929,1.8985,1.8993,1.8951,1.895,1.9038,1.9047,1.9056,1.9126,1.9087,1.9092,1.9095,1.926,1.9262,1.9264,0,0,0,0,0,0,1.8764,1.8777,1.8893,1.8843,1.8858,1.8896,1.8925,1.8931,1.8952,1.8994,1.9002,1.8965,1.9037,1.9049,1.9106,1.9129,1.9094,1.9099,1.9258,1.9261,1.9263,1.9266,0,0,0,0,0,0,1.8759,1.8776,1.8796,1.8843,1.8861,1.894,1.8927,1.8934,1.896,1.896,1.901,1.9017,1.9037,1.9099,1.9111,1.9136,1.9103,1.9256,1.9259,1.9262,1.9264,1.9268,1.9272,0,0,0,0,0,1.8753,1.8795,1.8797,1.8811,1.8887,1.8942,1.8952,1.8973,1.8962,1.8984,1.9011,1.9015,1.9125,1.9104,1.9119,1.9145,1.9255,1.9258,1.9262,1.9262,1.9267,1.9272,0,0,0,0,0,0,1.8751,1.8801,1.8805,1.8862,1.8897,1.8943,1.8971,1.8977,1.9017,1.9016,1.9041,1.9053,1.9108,1.9133,1.9109,1.9203,1.9189,1.9196,1.9185,1.919,1.9194,1.9186,1.9107,0,0,0,0,0,1.8756,1.8795,1.8838,1.8884,1.8902,1.8933,1.8958,1.8971,1.9009,1.9025,1.9056,1.9094,1.9137,1.9165,1.9207,1.9268,1.9279,1.9293,1.9297,1.93,1.9305,1.9339,1.9346,1.9275,1.9275,1.9275,0,0,1.8769,1.8802,1.8825,1.8884,1.8913,1.8954,1.8946,1.8989,1.902,1.9032,1.9086,1.9111,1.9156,1.9215,1.9242,1.9237,1.9327,1.9304,1.9306,1.931,1.9343,1.935,1.9356,1.9277,1.9277,1.9276,0,0,1.8813,1.8841,1.8883,1.8912,1.8955,1.8976,1.8986,1.9032,1.9048,1.9104,1.9113,1.9151,1.9225,1.9256,1.9281,1.9338,1.9343,1.9351,1.9371,1.9404,1.9409,1.9414,1.9434,1.9441,1.9356,1.9356,1.9356,0,1.8823,1.8883,1.8904,1.8947,1.8973,1.8985,1.9028,1.9055,1.9111,1.913,1.9122,1.9215,1.9245,1.9312,1.9325,1.9346,1.9359,1.9345,1.9407,1.9412,1.9417,1.9436,1.9444,1.9357,1.9357,1.9357,1.9357,0,1.8894,1.8936,1.8965,1.9017,1.9047,1.9089,1.9118,1.9146,1.9157,1.9179,1.9236,1.9273,1.9323,1.934,1.9352,1.9408,1.9403,1.9401,1.9388,1.9424,1.9442,1.945,1.9358,1.9357,1.9357,1.9357,0,0,1.8938,1.9,1.9011,1.9034,1.9083,1.9117,1.9161,1.9208,1.9232,1.927,1.9308,1.937,1.9368,1.9397,1.9413,1.9442,1.9484,1.9436,1.9438,1.9443,1.9548,1.9549,1.9557,1.9488,1.9489,1.9491,1.9544,0,1.8987,1.9063,1.9084,1.9149,1.9189,1.9201,1.9239,1.9274,1.9296,1.9334,1.936,1.9403,1.9397,1.9415,1.9444,1.9472,1.9505,1.9469,1.9524,1.9526,1.9511,1.9567,1.9568,1.9617,1.9552,1.9553,1.9554,0,1.9053,1.9092,1.9161,1.9205,1.9222,1.9256,1.9301,1.9337,1.9378,1.9392,1.9424,1.9437,1.9485,1.9469,1.9536,1.951,1.9535,1.9552,1.9555,1.956,1.9541,1.9573,1.9633,1.964,1.9566,1.9565,1.9564,0,1.9077,1.9147,1.9197,1.9217,1.927,1.9294,1.9317,1.9356,1.9384,1.9424,1.9442,1.9488,1.9513,1.9548,1.9574,1.956,1.9638,1.9625,1.9652,1.9651,1.9667,1.9665,1.973,1.9684,1.9683,1.9683,1.9683,0,1.9129,1.9171,1.9208,1.9239,1.9287,1.9311,1.9358,1.9382,1.9417,1.9453,1.9468,1.9502,1.9534,1.9573,1.9593,1.9645,1.9657,1.967,1.9675,1.9668,1.9666,1.9684,1.9681,1.9685,1.9685,1.9684,1.9684,0,1.9163,1.919,1.9246,1.9291,1.9304,1.9337,1.9376,1.9408,1.9431,1.9477,1.9489,1.9526,1.9573,1.9602,1.9661,1.9675,1.9732,1.9736,1.9718,1.972,1.9745,1.9742,1.9822,1.9834,1.978,1.9781,1.9781,0,1.9194,1.9226,1.9275,1.93,1.9324,1.9364,1.9392,1.9417,1.9446,1.9494,1.952,1.9567,1.9606,1.9681,1.9713,1.9759,1.9764,1.979,1.9771,1.9764,1.9764,1.9761,1.9765,1.9792,1.9793,1.9793,1.9793,0,1.9246,1.9258,1.9296,1.934,1.9372,1.9408,1.9443,1.9464,1.9495,1.9527,1.9574,1.9604,1.9665,1.9712,1.9761,1.9786,1.9795,1.9799,1.9807,1.9801,1.9788,1.9795,1.9725,1.9797,1.9796,1.9796,1.9796,1.9796,1.9279,1.9308,1.9347,1.939,1.942,1.9453,1.9484,1.9511,1.955,1.96,1.9614,1.9663,1.9704,1.977,1.9797,1.9837,1.9833,1.9846,1.9849,1.9851,1.9851,1.9782,1.9846,1.9846,1.9846,1.9846,1.9846,0,1.9331,1.9357,1.9396,1.9445,1.9479,1.9484,1.9524,1.9552,1.9595,1.9632,1.9669,1.9724,1.977,1.9806,1.9854,1.9879,1.9884,1.989,1.9888,1.9894,1.9852,1.984,1.9885,1.9885,1.9885,1.9885,1.9885,1.9885,1.9362,1.9412,1.9428,1.9493,1.9519,1.9566,1.9589,1.962,1.9649,1.9709,1.9746,1.977,1.9806,1.9857,1.9899,1.9909,1.9925,1.9931,1.9941,1.9901,1.9897,1.9893,1.9881,1.9934,1.9934,1.9979,1.998,1.998]},{"header":{"parameterUnit":"m.s-1","parameterCategory":1,"la1":30.2991,"la2":30.254,"lo1":-89.0895,"lo2":-89.0444,"dy":0.0017,"dx":0.0017,"nx":28,"ny":28,"refTime":"2023-08-13T21:00:00:Z","depth":0,"parameterNumber":3,"parameterNumberName":"V-component_of_WINDS"},"data":[0,0,0,0,0,0,0,0,0,0,0,0,0,0,0,0,0,0,0,0,0,0,0,0,0,0,0,0,0,0,0,0,0,0,0,0,0,0,0,0,0,0,0,0,0,0,0,0,0,0,0,0,0,0,0,0,0,0,4.7974,4.7974,0,4.8026,4.8026,4.8027,4.8031,4.803,4.803,4.8029,4.8076,4.8078,4.808,0,0,0,0,0,0,0,0,0,0,0,0,0,4.7869,4.7871,4.7974,4.7974,4.7975,4.8026,4.8026,4.8027,4.8031,4.803,4.8029,4.8029,4.8076,4.8078,4.808,0,0,0,0,0,0,0,0,0,0,0,0,0,4.7917,4.7871,4.7973,4.7983,4.7984,4.8026,4.8027,4.8027,4.8031,4.803,4.8029,4.8029,4.8075,4.8078,4.808,4.8114,0,0,4.8089,4.809,0,0,0,0,0,0,0,0,4.7914,4.7921,4.7981,4.7982,4.7984,4.8021,4.8007,4.8056,4.8031,4.8013,4.8029,4.8028,4.8058,4.8062,4.8074,4.8116,4.8118,4.8089,4.809,4.8092,4.8092,0,0,0,0,0,0,0,4.7911,4.7918,4.7994,4.7982,4.7984,4.7982,4.7988,4.8016,4.8039,4.8015,4.8015,4.8021,4.8059,4.8071,4.8075,4.8119,4.8089,4.8091,4.8093,4.8094,4.8187,4.8188,0,0,0,0,0,0,4.7907,4.7915,4.7992,4.7996,4.7946,4.7984,4.7991,4.801,4.8039,4.8043,4.8022,4.8021,4.8067,4.8072,4.8076,4.8115,4.8091,4.8094,4.8096,4.8186,4.8187,4.8188,0,0,0,0,0,0,4.7904,4.7913,4.799,4.7956,4.7965,4.7987,4.8008,4.8011,4.8024,4.8045,4.8049,4.8031,4.8066,4.8073,4.8104,4.8117,4.8095,4.8098,4.8185,4.8186,4.8188,4.8194,0,0,0,0,0,0,4.7901,4.7913,4.7928,4.7956,4.7967,4.8019,4.8009,4.8013,4.8029,4.8029,4.8054,4.8058,4.8066,4.81,4.8107,4.812,4.81,4.8184,4.8186,4.8187,4.8193,4.8195,4.8198,0,0,0,0,0,4.7898,4.7927,4.7928,4.7938,4.7987,4.802,4.8026,4.8038,4.803,4.8044,4.8057,4.8057,4.8115,4.8103,4.8111,4.8125,4.8183,4.8185,4.8187,4.8192,4.8195,4.8198,0,0,0,0,0,0,4.7898,4.7931,4.7933,4.7973,4.7994,4.8021,4.8039,4.8041,4.8063,4.8062,4.8073,4.8078,4.8109,4.812,4.8107,4.8157,4.8148,4.8151,4.8149,4.8152,4.8154,4.815,4.8102,0,0,0,0,0,4.7903,4.7929,4.7956,4.7988,4.7999,4.8017,4.8032,4.8039,4.806,4.8068,4.8084,4.8103,4.8125,4.8139,4.8161,4.8195,4.8198,4.8208,4.821,4.8212,4.8215,4.823,4.8234,4.8194,4.8194,4.8194,0,0,4.7913,4.7934,4.795,4.7989,4.8006,4.803,4.8024,4.8051,4.8068,4.8072,4.8102,4.8114,4.8135,4.8167,4.8182,4.8178,4.8227,4.8215,4.8216,4.8218,4.8233,4.8236,4.824,4.8196,4.8196,4.8195,0,0,4.7943,4.7963,4.7991,4.8008,4.8034,4.8046,4.8052,4.8079,4.8087,4.8118,4.812,4.814,4.8179,4.8193,4.8205,4.8238,4.8238,4.8245,4.8257,4.8272,4.8275,4.8278,4.8287,4.8291,4.8248,4.8248,4.8248,0,4.7951,4.7991,4.8004,4.8031,4.8046,4.8052,4.8078,4.8093,4.8124,4.8134,4.8129,4.8176,4.8191,4.8225,4.8233,4.8244,4.8249,4.8242,4.8274,4.8277,4.828,4.8289,4.8293,4.8248,4.8248,4.8248,4.8248,0,4.7998,4.8025,4.8044,4.8075,4.8093,4.8119,4.8134,4.8149,4.8154,4.8165,4.8194,4.8213,4.8237,4.8246,4.825,4.8279,4.8275,4.8272,4.8263,4.8284,4.8292,4.8296,4.8249,4.8249,4.8249,4.8248,0,0,4.803,4.8068,4.8074,4.8087,4.8116,4.8135,4.816,4.8185,4.8197,4.8218,4.8237,4.8269,4.8266,4.8279,4.8285,4.8299,4.832,4.8294,4.8294,4.8296,4.835,4.8351,4.8355,4.8321,4.8321,4.8322,4.8348,0,4.8062,4.8109,4.8121,4.8159,4.8182,4.8186,4.8207,4.8225,4.8236,4.8255,4.8265,4.8287,4.8282,4.829,4.8304,4.8315,4.8331,4.8313,4.8336,4.8336,4.8329,4.836,4.8362,4.8385,4.8351,4.8352,4.8352,0,4.8105,4.8128,4.8169,4.8192,4.8202,4.8221,4.8244,4.8263,4.8282,4.8288,4.8303,4.8307,4.833,4.832,4.835,4.8338,4.8347,4.8354,4.8355,4.8356,4.8345,4.836,4.8393,4.8396,4.8358,4.8358,4.8357,0,4.8121,4.8162,4.8191,4.8202,4.8231,4.8243,4.8255,4.8274,4.8288,4.8307,4.8315,4.8336,4.8347,4.8361,4.837,4.8362,4.8398,4.8389,4.8401,4.8401,4.8408,4.8407,4.8441,4.8417,4.8417,4.8417,4.8417,0,4.8154,4.8179,4.8199,4.8216,4.8242,4.8255,4.8279,4.8291,4.8307,4.8325,4.833,4.8346,4.8357,4.8374,4.8381,4.8403,4.8408,4.8412,4.8413,4.8411,4.841,4.8416,4.8414,4.8418,4.8418,4.8417,4.8417,0,4.8176,4.8191,4.8223,4.8247,4.8253,4.8271,4.8291,4.8306,4.8317,4.8339,4.8345,4.836,4.838,4.839,4.8415,4.8419,4.8444,4.8445,4.8438,4.8438,4.8448,4.8447,4.8486,4.8491,4.8465,4.8466,4.8466,0,4.8196,4.8215,4.8241,4.8254,4.8266,4.8287,4.8301,4.8313,4.8326,4.8349,4.8361,4.8382,4.8399,4.843,4.8442,4.846,4.846,4.8473,4.8463,4.8459,4.8458,4.8456,4.8457,4.8474,4.8474,4.8474,4.8475,0,4.8227,4.8233,4.8254,4.8277,4.8294,4.8312,4.8329,4.8339,4.8353,4.8368,4.8389,4.8402,4.8428,4.8447,4.8466,4.8475,4.8476,4.8478,4.8481,4.8478,4.8473,4.8474,4.844,4.8476,4.8476,4.8476,4.8476,4.8476,4.8247,4.8263,4.8283,4.8305,4.832,4.8336,4.8352,4.8364,4.8382,4.8405,4.841,4.8432,4.8448,4.8473,4.8483,4.8499,4.8496,4.8501,4.8502,4.8503,4.8503,4.8471,4.8502,4.8502,4.8502,4.8502,4.8502,0,4.8277,4.829,4.831,4.8335,4.8352,4.8353,4.8372,4.8385,4.8405,4.8421,4.8438,4.8461,4.8479,4.8492,4.851,4.852,4.8521,4.8524,4.8523,4.8524,4.8505,4.85,4.8523,4.8523,4.8523,4.8523,4.8523,4.8523,4.8294,4.832,4.8328,4.8361,4.8373,4.8396,4.8406,4.842,4.8432,4.8458,4.8474,4.8483,4.8497,4.8516,4.8532,4.8535,4.8541,4.8544,4.8547,4.8528,4.8526,4.8524,4.8518,4.8545,4.8545,4.8564,4.8564,4.8564]}]]